Wind_Speed
25 19 13 13 14 19 23 26 29 31 28 24 25 30 33 35 38 42 47 53 57 64 73 78 59 54 44 38 32 26 22 24 28 32 38 42 46 49 54 66 76 85 95 111 121 117 107
18 14 11 11 13 17 24 29 30 30 28 26 26 28 30 33 38 43 48 52 59 67 76 77 60 54 44 39 31 20 15 17 22 25 29 34 41 46 55 64 71 82 91 99 111 115 106
13 9 9 11 14 17 24 29 31 31 29 28 27 29 32 35 40 44 48 53 61 68 79 81 64 51 47 40 31 21 15 13 15 20 22 32 40 46 53 56 63 74 83 92 106 110 109
8 9 8 12 14 17 23 30 33 33 33 30 29 31 36 39 43 45 49 55 64 71 81 84 69 53 47 42 33 24 15 11 11 16 20 28 35 42 46 53 59 68 77 88 101 106 109
9 10 9 9 14 18 22 29 36 36 36 35 34 36 39 42 46 49 53 58 67 74 84 88 79 61 51 43 37 28 16 9 9 13 18 24 31 37 41 50 57 64 72 83 96 103 104
12 10 10 10 16 20 25 29 35 34 38 38 38 39 42 45 48 52 56 61 68 77 84 92 85 65 54 48 38 32 21 12 3 5 11 21 24 29 35 47 54 63 68 80 92 100 100
13 11 12 12 15 20 24 28 34 32 37 38 38 40 42 46 48 50 56 63 70 76 82 88 91 76 61 52 41 32 23 18 6 6 10 13 19 24 34 40 48 58 70 82 95 99 101
14 14 15 16 16 20 23 26 30 31 33 36 37 39 42 45 46 48 54 61 67 75 83 87 93 92 68 57 46 35 27 22 15 6 12 16 20 24 30 38 47 55 64 70 88 97 99
14 17 18 18 19 21 26 25 29 30 31 34 36 38 41 42 43 47 52 59 64 72 80 84 89 96 78 61 51 40 32 24 16 9 10 12 15 21 27 33 43 54 60 72 85 93 92
13 15 20 21 22 24 25 25 28 30 29 32 33 35 37 39 41 45 51 56 63 69 72 78 84 91 93 67 54 44 37 31 22 12 6 10 14 19 21 27 33 45 58 68 77 90 89
12 13 16 19 23 24 23 23 27 29 28 29 31 32 35 36 39 43 49 55 62 67 70 75 80 85 94 80 61 47 39 35 29 20 11 6 12 19 25 29 34 44 56 68 80 89 89
18 18 18 18 15 19 22 22 26 28 27 28 28 29 32 34 37 42 47 54 60 64 69 73 80 82 88 89 71 58 47 39 35 27 17 10 12 18 22 29 36 44 55 67 79 85 83
21 20 19 18 18 21 22 21 25 27 27 25 27 27 29 32 34 39 44 51 56 59 64 71 77 83 85 91 85 69 57 47 41 33 24 19 16 17 19 25 32 40 52 68 78 79 81
23 21 20 20 20 20 21 21 23 24 26 25 26 26 28 30 32 36 40 47 51 57 61 67 72 78 83 86 90 79 68 56 45 37 30 23 20 19 22 27 35 43 54 64 71 76 77
27 25 22 21 22 21 23 24 24 22 24 23 24 25 26 27 28 32 36 42 48 52 56 62 67 71 77 81 85 87 73 66 54 45 37 28 23 21 25 26 35 43 53 63 68 71 70
30 31 27 26 24 23 25 26 26 24 22 21 22 24 25 26 26 29 31 36 42 47 51 55 60 66 71 76 79 83 85 72 64 53 44 34 27 24 23 25 33 43 53 60 63 65 65
35 33 33 30 30 26 27 27 28 27 23 21 21 21 25 24 24 25 28 31 37 43 47 50 53 58 63 67 71 73 77 79 71 60 49 40 30 23 21 23 31 41 49 55 58 60 61
40 37 37 36 35 29 28 28 28 28 25 25 20 21 21 22 22 23 23 26 31 37 43 48 47 51 55 60 62 64 66 68 69 69 55 48 38 28 20 20 26 34 40 44 49 51 54
45 42 40 39 39 36 30 31 29 30 27 26 25 22 21 20 22 21 19 21 26 28 34 41 44 45 48 51 54 56 59 56 58 59 58 51 41 35 26 18 15 18 24 29 35 40 44
50 49 45 44 42 43 39 35 32 32 31 31 30 31 24 21 22 21 19 18 22 22 26 31 36 39 42 44 46 47 48 50 51 49 48 45 44 39 24 18 12 7 11 19 26 32 37
55 55 53 49 46 46 45 41 36 31 30 32 34 31 32 26 24 24 23 21 19 19 20 24 28 33 35 38 40 41 45 41 43 44 43 38 35 31 27 25 17 7 5 12 19 26 33
61 63 60 55 51 50 48 44 39 33 30 32 34 33 31 32 29 26 26 26 25 23 23 21 23 26 30 31 35 37 38 38 37 36 35 33 27 26 23 21 17 10 5 1 3 9 12
64 65 64 58 58 55 52 49 47 43 37 36 34 34 33 34 36 32 29 31 29 30 25 23 24 24 26 26 30 32 32 33 33 33 33 32 28 28 27 26 18 17 14 14 15 18 21
61 67 67 64 61 59 56 56 52 48 46 46 44 40 41 38 33 37 36 33 33 34 33 31 28 26 27 29 30 30 30 29 31 29 28 30 28 30 27 25 29 29 28 29 33 32 28
73 67 68 66 64 62 61 57 55 54 51 50 46 46 46 43 39 35 36 38 38 35 36 36 36 36 35 33 35 36 34 33 30 30 29 27 27 30 32 34 35 36 35 35 37 40 43
76 70 71 65 65 65 64 62 58 57 56 54 53 50 50 50 45 43 40 40 40 41 43 43 42 41 42 42 40 39 38 37 37 38 39 40 41 39 34 34 36 38 41 42 45 48 52
79 74 73 74 69 69 69 66 61 62 61 60 58 56 56 54 53 51 50 50 49 48 48 47 46 46 46 47 45 45 43 43 44 46 47 47 46 44 50 49 47 49 47 51 54 54 56
88 83 78 82 74 71 73 69 68 65 65 64 64 62 62 60 59 56 55 56 57 55 53 54 53 53 52 53 53 51 50 50 50 50 52 53 54 58 60 59 56 57 58 59 60 62 64
91 89 85 82 80 75 75 72 74 72 69 70 71 69 68 65 61 58 59 59 61 59 62 62 62 62 61 61 59 58 57 55 56 56 61 59 63 65 69 65 65 65 65 66 67 69 72
Wind_Direction
287 302 301 321 321 341 354 357 356 358 360 355 347 341 340 344 344 342 338 337 337 335 337 338 339 338 340 331 317 302 279 260 250 244 238 233 231 227 225 221 217 216 215 214 216 218 218
293 299 293 315 333 353 2 4 3 3 7 8 5 2 355 351 350 346 343 341 341 343 346 348 350 345 354 347 336 322 305 268 246 235 229 226 222 220 219 217 212 212 213 212 213 215 216
295 276 293 315 347 359 5 6 1 2 1 0 360 0 1 357 353 347 345 346 349 353 356 357 359 355 359 360 349 343 332 287 250 227 217 216 214 213 215 212 209 207 208 208 209 211 212
286 265 292 319 350 354 360 4 0 1 359 359 359 359 2 359 355 352 349 353 356 359 4 4 4 6 3 5 359 353 347 312 252 221 203 214 211 217 213 208 205 205 205 204 204 206 209
289 280 304 323 350 354 357 358 1 358 358 359 1 2 0 359 357 355 354 360 3 6 11 8 10 10 9 12 9 4 4 339 255 222 202 208 213 214 207 204 204 201 200 201 202 203 204
291 284 296 331 354 356 357 359 358 356 357 358 358 358 359 359 359 357 358 4 8 10 12 13 13 13 14 11 17 11 18 13 310 232 199 191 207 214 211 202 201 200 196 198 198 201 199
296 280 292 308 332 346 352 351 354 355 355 355 358 357 358 359 359 359 2 7 10 11 15 16 17 15 17 18 16 22 19 32 60 129 152 176 197 203 201 203 201 201 193 196 195 197 196
291 288 287 302 316 331 347 347 348 355 355 352 354 356 357 358 0 1 4 8 11 13 14 16 19 22 19 21 23 25 33 28 42 112 152 175 181 189 198 198 196 195 196 195 196 194 194
290 290 292 292 303 318 334 337 344 353 354 352 351 356 360 1 3 5 6 9 12 14 12 14 19 23 24 23 24 27 37 38 34 56 152 173 186 188 192 197 197 192 189 194 194 193 190
280 290 284 283 293 306 323 337 341 352 354 355 353 357 1 2 3 6 8 10 12 13 12 13 17 22 27 28 26 29 37 41 41 45 72 147 164 172 180 185 191 191 191 193 189 188 189
285 299 302 293 291 304 320 333 337 344 352 354 354 356 1 3 3 8 8 9 11 11 12 16 18 22 26 30 32 33 38 44 47 48 62 115 143 156 163 169 182 189 192 187 185 186 187
278 288 295 299 294 300 320 325 334 337 346 352 353 354 359 2 3 8 9 7 10 12 14 18 22 23 26 34 36 36 39 46 52 49 58 90 133 143 159 170 179 186 187 183 182 184 186
269 279 286 287 293 305 311 322 334 333 340 348 351 353 356 0 2 7 7 6 12 13 15 18 22 26 25 30 37 40 42 43 48 53 55 74 107 132 149 164 174 179 180 182 181 181 186
269 274 277 283 289 300 308 319 323 329 337 337 346 348 354 359 1 5 3 6 11 14 17 19 22 27 27 28 34 39 41 43 47 49 52 70 92 113 134 151 163 172 175 178 179 183 187
268 273 279 279 285 295 303 311 316 320 331 333 338 346 350 358 1 3 5 8 10 14 16 19 22 24 28 30 32 37 42 44 45 48 54 66 86 105 120 143 156 169 173 176 180 185 188
270 274 277 279 285 288 295 301 313 314 323 327 329 336 347 355 1 2 6 10 7 14 18 20 22 24 27 31 32 34 39 44 45 48 51 59 72 90 113 138 154 167 173 175 180 185 191
265 272 274 276 278 280 289 293 299 306 311 321 323 327 338 347 359 1 6 5 7 13 20 22 22 24 23 26 31 35 37 41 46 47 50 54 65 84 109 133 156 164 171 177 182 187 193
267 267 272 271 274 275 283 286 288 296 301 311 315 316 326 337 348 360 2 4 11 12 17 22 21 23 21 21 28 30 36 39 42 47 51 53 56 63 84 125 151 163 171 179 186 193 199
261 263 268 271 271 275 275 282 284 289 297 301 307 302 310 320 334 346 359 3 9 12 13 17 18 19 20 21 23 27 29 37 39 43 48 54 61 63 67 82 120 154 176 186 193 199 205
251 254 254 258 262 268 273 274 278 282 287 296 304 305 297 304 313 325 335 348 359 6 6 10 14 15 20 20 21 23 26 28 29 40 42 49 54 59 70 81 91 132 188 202 208 212 218
246 248 250 254 260 265 267 272 276 275 278 286 290 297 303 289 297 310 313 317 334 343 352 354 1 6 6 7 8 15 15 24 24 24 29 43 45 51 58 62 65 90 211 228 232 234 237
256 254 254 254 254 258 260 263 269 266 271 278 285 291 295 293 286 294 305 310 314 314 321 329 339 347 355 358 357 1 5 8 13 19 22 26 32 39 38 35 31 35 50 22 260 247 245
254 253 256 256 256 258 260 261 265 263 271 276 276 280 287 289 292 280 289 300 305 306 304 309 317 328 337 339 344 348 352 354 356 0 7 7 7 6 2 1 354 348 339 318 307 297 294
256 254 256 259 259 259 260 262 263 263 267 273 277 281 280 282 283 287 280 289 293 301 300 297 299 305 315 320 323 329 332 335 335 342 342 341 342 340 341 340 337 331 326 326 323 314 304
257 257 254 257 258 260 262 261 263 263 265 269 271 274 278 282 278 281 284 285 285 290 297 296 298 302 305 306 311 312 315 316 316 317 320 320 318 321 319 320 320 314 315 318 318 315 310
253 250 255 254 257 259 259 261 259 260 262 265 269 271 275 278 279 273 273 277 282 285 289 290 290 292 294 299 303 305 307 306 306 305 305 310 308 304 300 303 302 301 302 309 309 305 302
247 250 252 255 254 260 259 260 256 260 261 263 266 271 274 275 276 278 275 273 275 276 280 284 288 289 289 291 294 295 298 296 297 300 303 304 303 297 299 301 299 298 299 299 299 300 299
248 249 252 254 254 259 258 258 259 258 259 260 263 267 271 272 276 276 276 279 280 280 281 283 287 287 289 290 291 291 293 293 293 294 293 295 296 294 294 293 294 295 295 295 296 296 295
245 249 252 253 253 256 261 259 259 259 261 260 263 269 273 272 271 274 277 279 281 283 283 282 283 285 289 289 287 288 290 289 289 289 292 292 293 294 292 293 292 292 291 292 292 292 292
Height
10741 10740 10736 10736 10734 10729 10724 10717 10710 10703 10696 10691 10688 10682 10677 10671 10663 10654 10643 10630 10616 10596 10572 10540 10510 10488 10469 10453 10442 10433 10429 10427 10426 10429 10433 10442 10450 10458 10471 10476 10492 10512 10533 10546 10573 10604 10629
10738 10736 10735 10734 10730 10726 10721 10715 10708 10702 10696 10691 10686 10680 10674 10667 10659 10649 10637 10622 10606 10586 10560 10528 10499 10476 10460 10446 10434 10426 10422 10420 10420 10422 10428 10432 10437 10445 10449 10461 10478 10497 10513 10542 10567 10595 10624
10734 10733 10733 10731 10727 10723 10719 10713 10707 10702 10696 10691 10685 10678 10670 10664 10656 10646 10633 10617 10600 10580 10551 10520 10493 10471 10453 10442 10430 10421 10416 10414 10414 10417 10422 10424 10428 10435 10442 10457 10470 10487 10507 10531 10554 10581 10611
10730 10730 10730 10728 10725 10722 10717 10712 10706 10700 10695 10689 10682 10675 10668 10660 10652 10641 10629 10612 10593 10572 10546 10518 10491 10471 10454 10438 10429 10420 10414 10412 10411 10413 10419 10420 10425 10428 10440 10452 10465 10482 10499 10520 10543 10568 10594
10729 10728 10728 10726 10723 10720 10716 10710 10705 10699 10693 10687 10680 10673 10665 10657 10648 10637 10624 10608 10587 10567 10543 10516 10489 10471 10455 10441 10429 10422 10415 10411 10410 10411 10416 10418 10423 10428 10438 10448 10461 10476 10495 10516 10537 10558 10584
10727 10726 10726 10724 10721 10718 10714 10709 10704 10698 10692 10685 10678 10671 10663 10654 10644 10634 10621 10605 10588 10566 10544 10518 10497 10474 10458 10443 10432 10423 10417 10413 10412 10413 10415 10421 10423 10430 10439 10446 10459 10473 10492 10510 10532 10552 10580
10723 10723 10723 10722 10720 10717 10713 10708 10703 10697 10691 10685 10678 10670 10662 10653 10643 10633 10620 10604 10588 10574 10550 10529 10505 10478 10460 10446 10435 10427 10421 10418 10415 10415 10418 10422 10427 10432 10439 10449 10461 10473 10484 10494 10513 10542 10569
10721 10720 10720 10719 10718 10715 10711 10707 10702 10696 10691 10684 10677 10670 10662 10653 10643 10634 10622 10608 10592 10574 10554 10535 10513 10487 10464 10450 10440 10431 10426 10421 10420 10419 10421 10425 10428 10434 10442 10451 10460 10472 10489 10509 10523 10542 10569
10720 10718 10717 10716 10715 10713 10710 10706 10701 10696 10690 10684 10677 10670 10662 10654 10644 10635 10624 10611 10596 10579 10561 10548 10525 10500 10475 10457 10446 10439 10432 10428 10425 10425 10426 10428 10433 10439 10445 10454 10464 10475 10490 10503 10521 10548 10580
10716 10715 10714 10713 10712 10710 10708 10704 10700 10695 10690 10684 10677 10670 10663 10655 10646 10637 10627 10614 10601 10587 10574 10557 10537 10516 10492 10471 10455 10446 10439 10435 10432 10432 10432 10434 10437 10443 10451 10461 10473 10486 10495 10508 10532 10555 10578
10712 10711 10711 10710 10709 10707 10705 10702 10699 10694 10689 10683 10677 10671 10663 10656 10649 10640 10630 10618 10606 10594 10582 10564 10546 10529 10508 10485 10469 10459 10451 10444 10441 10440 10440 10442 10444 10448 10455 10464 10475 10487 10500 10514 10533 10554 10577
10708 10707 10706 10706 10705 10703 10701 10699 10697 10693 10688 10683 10677 10671 10664 10658 10650 10642 10632 10622 10611 10599 10585 10572 10556 10540 10523 10501 10482 10468 10460 10454 10450 10450 10449 10450 10453 10458 10463 10470 10479 10491 10505 10522 10543 10562 10586
10703 10702 10702 10701 10700 10699 10697 10696 10694 10691 10687 10682 10678 10672 10665 10659 10652 10644 10636 10627 10616 10606 10594 10580 10565 10549 10533 10515 10496 10483 10473 10466 10461 10460 10460 10460 10463 10468 10474 10482 10492 10504 10517 10534 10552 10575 10591
10697 10697 10697 10696 10696 10695 10694 10692 10691 10688 10685 10681 10677 10672 10666 10660 10654 10647 10640 10632 10623 10611 10600 10588 10575 10561 10548 10530 10515 10500 10489 10481 10476 10474 10472 10472 10476 10479 10485 10492 10502 10516 10530 10549 10567 10580 10597
10691 10691 10691 10691 10691 10691 10690 10689 10687 10685 10683 10679 10676 10672 10667 10661 10655 10649 10643 10636 10628 10618 10608 10597 10585 10576 10562 10548 10534 10520 10508 10499 10493 10488 10488 10489 10490 10494 10500 10509 10517 10530 10544 10558 10575 10590 10606
10683 10684 10685 10685 10686 10686 10685 10684 10683 10681 10679 10677 10674 10671 10666 10661 10656 10651 10646 10639 10633 10624 10615 10606 10597 10587 10577 10565 10553 10540 10528 10516 10512 10507 10505 10508 10510 10514 10519 10526 10535 10545 10557 10571 10585 10600 10613
10676 10678 10678 10679 10680 10681 10680 10679 10678 10677 10676 10674 10672 10669 10666 10661 10657 10652 10648 10643 10636 10628 10621 10613 10606 10598 10589 10581 10572 10562 10552 10543 10535 10531 10530 10530 10532 10536 10541 10546 10553 10562 10573 10584 10596 10608 10619
10667 10669 10671 10672 10673 10673 10674 10674 10673 10673 10671 10670 10669 10667 10664 10660 10657 10653 10649 10645 10639 10633 10627 10621 10614 10608 10601 10594 10588 10581 10575 10567 10561 10556 10552 10553 10554 10559 10564 10569 10575 10582 10591 10600 10609 10619 10627
10657 10660 10662 10664 10665 10665 10666 10667 10667 10666 10666 10665 10664 10663 10661 10658 10656 10653 10649 10646 10641 10636 10632 10626 10622 10617 10611 10605 10600 10595 10591 10587 10583 10580 10577 10575 10574 10578 10583 10589 10596 10602 10609 10616 10622 10628 10634
10644 10648 10651 10654 10655 10656 10658 10659 10660 10660 10659 10659 10659 10657 10657 10655 10653 10651 10649 10645 10642 10638 10634 10630 10627 10623 10619 10615 10611 10607 10603 10600 10596 10596 10594 10593 10593 10594 10596 10601 10606 10612 10617 10622 10627 10631 10635
10632 10635 10638 10642 10646 10646 10648 10650 10651 10652 10653 10653 10653 10652 10652 10650 10649 10648 10646 10644 10641 10639 10635 10633 10630 10626 10624 10621 10619 10616 10612 10610 10608 10607 10606 10607 10607 10608 10610 10611 10614 10617 10620 10624 10628 10631 10634
10620 10623 10626 10630 10634 10636 10638 10639 10641 10643 10645 10645 10645 10645 10645 10644 10644 10643 10642 10641 10639 10637 10635 10633 10631 10628 10626 10623 10622 10620 10618 10616 10613 10613 10613 10613 10613 10615 10616 10617 10618 10620 10622 10623 10625 10626 10628
10608 10610 10614 10618 10621 10624 10627 10629 10630 10632 10634 10635 10636 10638 10638 10637 10637 10637 10637 10636 10635 10634 10633 10631 10630 10628 10627 10625 10623 10621 10620 10620 10619 10617 10615 10614 10615 10617 10617 10617 10619 10620 10622 10622 10622 10621 10621
10592 10597 10601 10605 10608 10611 10614 10617 10619 10620 10623 10624 10626 10628 10628 10629 10629 10629 10629 10629 10629 10629 10628 10627 10626 10625 10624 10624 10623 10621 10620 10619 10618 10619 10619 10617 10616 10615 10615 10614 10614 10613 10613 10613 10614 10614 10614
10577 10582 10585 10590 10594 10597 10600 10603 10606 10609 10610 10612 10614 10616 10617 10618 10620 10620 10621 10621 10621 10621 10620 10619 10620 10619 10619 10619 10618 10617 10617 10616 10615 10614 10614 10615 10615 10614 10612 10612 10610 10606 10605 10604 10603 10601 10599
10560 10565 10569 10575 10578 10582 10584 10588 10591 10594 10597 10599 10601 10604 10606 10606 10608 10610 10610 10611 10612 10612 10612 10612 10612 10611 10611 10611 10610 10610 10609 10607 10607 10606 10606 10607 10606 10605 10604 10604 10603 10599 10597 10595 10593 10591 10587
10542 10548 10552 10557 10563 10565 10568 10573 10576 10579 10582 10585 10587 10590 10592 10593 10594 10597 10598 10598 10600 10601 10601 10600 10601 10600 10601 10601 10601 10601 10601 10598 10597 10595 10593 10593 10594 10592 10591 10591 10592 10587 10587 10585 10582 10579 10574
10522 10528 10535 10539 10544 10548 10552 10556 10561 10564 10567 10569 10572 10575 10578 10579 10580 10582 10583 10584 10586 10587 10589 10587 10587 10587 10588 10588 10589 10589 10589 10587 10584 10584 10581 10580 10578 10575 10573 10571 10574 10572 10570 10566 10563 10559 10554
10501 10508 10514 10520 10525 10530 10535 10539 10542 10547 10550 10553 10555 10558 10561 10564 10564 10567 10567 10569 10570 10571 10574 10574 10573 10573 10573 10573 10574 10575 10575 10574 10571 10571 10564 10566 10560 10558 10553 10555 10551 10552 10551 10548 10543 10539 10533